Location: Binza
(47.2236°N, 9.5537°E)
Time: 01:13:01
(UTC+00:00)

Daily predictions for brighter satellites

Satellite Brightness Start Highest point End
(mag) Time Altitude Azimuth Time Altitude Azimuth Time Altitude Azimuth
SL-16 R/B 3.7 00:02:19 19° SE 00:04:26 23° ESE 00:08:49 10° NE
SL-16 R/B 4.0 00:02:00 10° ESE 00:07:26 33° ENE 00:12:54 10° N
Lacrosse 5 3.0 00:07:00 27° SE 00:07:26 28° SE 00:11:45 10° ENE
USA 306 2.7 00:07:12 65° S 00:07:35 71° SE 00:11:45 10° ENE
Cosmos 1980 3.7 00:06:08 42° S 00:08:05 74° ESE 00:13:45 10° NNE
Cosmos 371 Rocket 3.2 00:06:52 49° SSW 00:08:11 89° ESE 00:13:05 10° NNE
Cosmos 1461 4.4 00:07:31 10° WNW 00:10:09 24° W 00:10:09 24° W
Cosmos 2333 Rocket 3.7 00:07:16 13° WSW 00:11:33 29° NW 00:16:29 10° NNE
USA 307 2.7 00:11:14 62° S 00:11:36 67° SE 00:15:46 10° ENE
Meteor 2-10 Rocket 3.8 00:08:32 10° N 00:14:14 72° ENE 00:16:52 32° SSE
ATLAS CENTAUR R/B 3.9 00:12:29 10° W 00:13:49 13° W 00:13:49 13° W
ASTEX 1 4.2 00:11:54 10° N 00:16:28 39° WNW 00:18:02 31° WSW
Cosmos 1709 Rocket 3.9 00:10:29 10° N 00:16:39 90° ENE 00:19:32 34° S
Cosmos 304 Rocket 3.8 00:15:45 46° S 00:17:05 69° ESE 00:21:54 10° NNE
USA 267 3.5 00:17:02 33° S 00:19:29 46° SW 00:25:44 10° WNW
Cosmos 2084 Rocket 4.0 00:19:39 35° ESE 00:19:39 35° ESE 00:23:10 10° NE
Cosmos 2315 Rocket 4.0 00:18:32 34° S 00:21:32 80° E 00:27:56 10° N
NOSS 2-2 (C) 4.5 00:18:31 10° NW 00:23:37 55° SW 00:26:47 30° S
Cosmos 1674 Rocket 4.4 00:23:09 32° WSW 00:24:11 37° WNW 00:28:13 10° N
USA 229 DEB 4.1 00:19:24 10° NW 00:26:34 54° WSW 00:30:40 28° S
USA 229 4.1 00:19:29 10° NW 00:26:40 55° WSW 00:30:48 28° S
S3M 4.3 00:24:09 32° SW 00:27:04 58° WNW 00:33:20 10° N
Meteor 1-24 Rocket 4.4 00:25:27 25° SSE 00:28:16 44° E 00:33:24 10° NNE
COSMOS 2455 4.5 00:25:36 16° SE 00:28:25 23° ESE 00:32:57 10° ENE
Cosmos 2219 Rocket 3.8 00:26:28 12° WSW 00:30:37 27° NW 00:35:23 10° N
Cosmos 1455 4.0 00:28:25 10° NNE 00:31:34 26° ENE 00:33:50 15° ESE
Cosmos 2150 Rocket 4.4 00:32:33 32° SW 00:34:42 55° WNW 00:39:47 10° NNE
MOZ.5/SAFIR/RUBIN 5/SL-8 3.7 00:34:54 38° S 00:36:46 85° WSW 00:41:33 10° NNW
CZ-2D R/B 2.9 00:33:00 10° NNE 00:38:08 44° E 00:40:53 24° SSE
Cosmos 1455 Rocket 3.0 00:36:20 10° N 00:40:50 90° E 00:42:27 39° S
USA 308 2.8 00:40:45 38° WSW 00:42:17 81° NNW 00:46:30 10° ENE
Cosmos 1300 3.1 00:40:00 10° NNW 00:43:36 42° W 00:43:56 41° WSW
Cosmos 1125 Rocket 4.2 00:43:32 26° WSW 00:45:59 43° WNW 00:50:58 10° NNE
NOSS 0 Rocket 4.5 00:45:01 24° WSW 00:48:43 52° NW 00:54:49 10° NNE
Meteor 2-5 Rocket 3.8 00:50:14 30° S 00:53:12 81° E 00:58:53 10° NNE
ERBS 2.5 00:55:13 45° WNW 00:55:47 54° NW 00:58:49 10° NE
CZ-4C R/B 4.0 00:50:57 10° WNW 00:57:04 27° WSW 00:59:24 24° SW
Cosmos 1975 Rocket 3.1 00:56:40 38° SSW 00:58:14 67° W 01:02:42 10° N
Cosmos 2237 Rocket 2.7 00:56:44 25° WSW 00:59:53 51° WNW 01:05:28 10° NNE
Cosmos 1025 Rocket 3.0 01:00:08 38° SSW 01:01:43 76° W 01:06:02 10° N
Resurs 1-4 Rocket 2.2 00:58:48 10° NNE 01:04:05 74° ESE 01:07:01 27° S
SME Rocket 3.4 01:03:28 36° SSW 01:04:54 55° W 01:09:58 10° NNW
USA 305 3.4 01:02:26 20° W 01:05:09 55° NNW 01:09:17 10° NE
Cosmos 332 Rocket 4.3 01:08:19 27° WSW 01:10:34 48° WNW 01:15:14 10° NNE
CZ-4 R/B 3.7 01:06:11 10° NNE 01:10:52 84° ESE 01:13:13 29° S
YAOGAN 11 4.4 01:09:44 17° SSE 01:13:09 70° ENE 01:17:39 10° N
Cosmos 1943 Rocket 2.1 01:08:49 10° NNW 01:14:30 74° WSW 01:19:23 14° SSE
Lacrosse 5 rocket 1.5 01:14:37 36° S 01:15:50 52° SE 01:19:46 10° ENE
IDEFIX/ARIANE 42P 3.4 01:12:00 10° NNE 01:17:03 44° E 01:21:05 15° SSE
GP-B 4.2 01:14:00 10° NNW 01:17:54 31° W 01:19:29 24° WSW
ADEOS II 2.6 01:12:47 10° NNE 01:17:56 53° E 01:21:40 18° S
UNK 3.7 01:15:35 19° SSE 01:18:56 85° ENE 01:23:34 10° NNW
Cosmos 614 Rocket 4.1 01:14:20 10° NNW 01:19:33 76° ENE 01:24:46 10° SSE
Cosmos 2297 3.7 01:14:31 10° NNW 01:20:19 83° WSW 01:26:03 10° SSE
Thor Agena Rocket 4.2 01:16:19 10° N 01:21:21 46° WNW 01:24:18 23° SW
Cosmos 1544 Rocket 3.7 01:22:58 10° NNW 01:27:18 57° W 01:29:32 27° SSW
Cosmos 1703 4.2 01:24:41 17° SSE 01:27:22 42° E 01:31:06 10° NNE
Helios 1A 3.4 01:25:18 10° SSE 01:29:24 63° ENE 01:33:35 10° N
Cosmos 2278 Rocket 3.8 01:26:12 10° WNW 01:29:39 17° W 01:30:39 16° WSW
Cosmos 2251 Rocket 4.1 01:25:18 10° NNW 01:30:31 60° ENE 01:35:44 10° SE
Cosmos 2154 Rocket 4.0 01:25:13 10° N 01:31:36 89° ENE 01:37:43 11° S
EO 1 Del DPAF 3.7 01:30:45 10° NNE 01:34:11 49° E 01:36:19 20° S
MOS 1 Rocket 3.0 01:33:16 19° S 01:36:17 75° WSW 01:40:37 10° NNW
NPP 3.7 01:32:33 10° N 01:37:57 72° WNW 01:41:35 21° SSW
Cosmos 2369 Rocket 2.3 01:38:00 10° NNW 01:43:39 78° ENE 01:49:14 10° SSE
Cosmos 1656 Rocket 4.0 01:41:37 10° NNW 01:47:02 67° ENE 01:52:25 10° SE
USA 306 4.1 01:43:27 10° W 01:47:24 39° NNW 01:51:20 10° NE
SL-16 R/B 2.5 01:44:11 20° SW 01:48:05 61° WNW 01:53:43 10° NNE
Meteor 1-28 Rocket 3.1 01:46:34 17° S 01:49:19 70° WSW 01:53:03 10° NNW
Lacrosse 5 2.1 01:46:10 17° WSW 01:50:05 69° NW 01:55:12 10° NE
SL-16 R/B 2.8 01:45:54 15° S 01:50:48 50° W 01:56:52 10° NNW
USA 307 4.0 01:47:27 10° W 01:51:25 40° NNW 01:55:24 10° NE
Cosmos 2074 Rocket 4.4 01:48:25 10° NNW 01:54:23 46° W 01:59:10 16° SSW
AQUA 4.2 01:56:49 10° N 02:01:27 53° WNW 02:04:57 17° SW
Cosmos 1455 3.5 02:03:58 10° NW 02:06:57 23° W 02:08:35 17° SW
Cosmos 1603 4.2 02:06:20 10° S 02:11:42 56° ESE 02:17:15 10° NE
DNEPR-1 R/B 4.3 02:08:47 13° S 02:12:19 44° ESE 02:16:44 10° NE
COSMOS 2455 3.0 02:08:44 15° SW 02:13:46 72° NW 02:19:50 10° NNE
Cosmos 2228 3.2 02:10:11 10° NNW 02:14:28 56° W 02:18:42 10° S
Cosmos 407 Rocket 3.7 02:09:09 10° NNW 02:14:30 79° ENE 02:19:46 10° SSE
Cosmos 1271 Rocket 3.4 02:11:39 10° NNW 02:15:10 35° W 02:18:00 14° SSW
Cosmos 2218 Rocket 4.4 02:10:23 10° N 02:16:37 67° E 02:22:53 10° SSE
CZ-2D R/B 3.3 02:13:22 10° N 02:18:00 30° WNW 02:22:12 12° WSW
USA 308 4.4 02:18:29 10° WNW 02:22:20 34° N 02:26:12 10° ENE
Cosmos 1140 Rocket 3.5 02:17:26 10° NNW 02:22:43 86° WSW 02:27:57 10° SSE
MSX 3.9 02:19:35 10° N 02:25:20 70° WNW 02:31:04 10° SSW
Cosmos 2058 Rocket 3.6 02:25:04 10° N 02:29:26 63° ENE 02:33:45 10° SSE
Cosmos 292 Rocket 4.4 02:25:27 13° SW 02:29:33 43° WNW 02:34:08 10° N
Cosmos 2181 Rocket 4.1 02:27:43 10° S 02:33:56 82° E 02:40:08 10° N
NOSS 3-3 (A) 3.9 02:30:11 11° SW 02:35:40 85° SE 02:42:15 10° NE
NOSS 3-3 (C) 3.9 02:30:17 11° SW 02:35:46 85° SE 02:42:20 10° NE
Genesis I 3.2 02:36:51 10° NW 02:40:54 64° SW 02:44:49 10° SSE
Cosmos 1943 3.3 02:36:21 10° SSW 02:42:04 80° WNW 02:47:48 10° NNE
Resurs 1-4 Rocket 3.8 02:39:45 10° NNW 02:43:20 19° WNW 02:46:55 10° W
Meteor 2-1 Rocket 4.5 02:38:42 10° NNW 02:44:18 53° W 02:49:44 10° S
Cosmos 2237 Rocket 4.5 02:42:42 10° WNW 02:45:23 13° NW 02:48:04 10° N
DEBRIS 3.5 02:35:45 10° WNW 02:45:42 84° SSW 02:48:48 10° ESE
Helios 1B rocket 2.4 02:42:56 10° NNE 02:47:01 89° WNW 02:51:05 10° SSW
Cosmos 1328 4.1 02:45:02 10° SSW 02:48:52 50° WNW 02:52:47 10° N
Cosmos 1606 Rocket 4.2 02:46:16 10° NNW 02:50:19 36° W 02:54:19 10° SSW
ARIANE 5 R/B 3.3 02:47:15 10° NNE 02:52:12 51° E 02:57:03 10° S
Cosmos 1624 Rocket 4.3 02:47:45 10° SSW 02:53:03 76° ESE 02:58:21 10° NNE
Lacrosse 5 rocket 2.6 02:51:23 10° W 02:55:02 35° NNW 02:58:54 10° NE
CBERS-1 4.1 02:50:28 10° N 02:55:34 69° WNW 03:00:39 10° SSW
IDEFIX/ARIANE 42P 3.7 02:51:55 10° N 02:56:26 30° WNW 03:00:56 10° WSW
Cosmos 1943 Rocket 4.0 02:55:31 10° WNW 02:57:12 11° W 02:58:53 10° WSW
ADEOS II 3.5 02:53:05 10° N 02:57:18 25° WNW 03:01:29 10° WSW
FENGYUN 3A 3.8 02:53:31 10° NNE 02:58:56 85° ESE 03:04:20 10° SSW
Gblst 52 Del rocket 4.1 02:54:02 10° WNW 02:59:42 85° SSW 03:05:12 10° ESE
